Content
SEND FEEDBACK

Daily
Averages
Monthly
Summary
Greece

THESSALONIKI, GREECE


Home > Europe > Greece
Elevation: 13 feet     Latitude: 40 13N     Longitude: 022 58E

WEATHER
 
SELECT A DAY
Number of Records: 102,994;   Date Range: 7/3/96 - 12/19/14
 
SHARE

PRINT THIS DATA

[ ← Previous Day ]
WEATHER ALMANAC - SEPTEMBER 25, 2013
[ Next Day → ]
[ °C ]   °F
Weather ElementAverageHighLow
Temperature69.9 °F84.2 °F (4:50 pm)53.6 °F (7:20 am)
Dewpoint49.8 °F57.2 °F (4:20 pm)41 °F (5:20 pm)
Humidity50.1 %72 % (7:20 am)22 % (3:00 pm)
Barometer29.96 in29.98 in (9:20 am)29.92 in (12:50 am)
Wind Speed6.2 mph12.7 mph (5:20 pm)
Weather ElementAverage
Visibility6 mi
Wind DirectionS (183.6 °)

Weather ElementTotal
Precipitation---
Cooling Degree Days3.9 (Base 65)
Growing Degree Days18.9 (Base 50)
Averaged from 50 records on September 25, 2013
WEATHER CONDITIONS BREAKOUT
WIND DIRECTION BREAKOUT
WEATHER BY HOUR - SEPTEMBER 25, 2013
[ °C ]   °F
Local TimeTemperatureDewpointHumidityBarometerVisibilityWind DirectionWind SpeedGust SpeedPrecipitationEventsConditions
12:50 AM71.6 °F51.8 °F50 %29.92 inWest (260°)10.4 mphClear
1:20 AM71.6 °F50.0 °F46 %29.95 inWest (270°)10.4 mphClear
1:50 AM71.6 °F51.8 °F50 %29.95 inWest (280°)10.4 mphClear
2:20 AM69.8 °F48.2 °F46 %29.95 inWNW (300°)8.1 mphClear
2:50 AM68.0 °F51.8 °F56 %29.95 inWNW (300°)5.8 mphClear
3:20 AM68.0 °F53.6 °F60 %29.95 inWNW (300°)5.8 mphClear
3:50 AM62.6 °F48.2 °F59 %29.95 inEast (100°)4.6 mphClear
4:20 AM59.0 °F46.4 °F63 %29.95 inEast (100°)3.5 mphClear
4:50 AM59.0 °F46.4 °F63 %29.95 inCalmClear
5:20 AM57.2 °F44.6 °F63 %29.95 inEast (100°)4.6 mphClear
5:50 AM55.4 °F44.6 °F67 %29.95 inESE (110°)5.8 mphClear
6:20 AM55.4 °F44.6 °F67 %29.95 inESE (110°)5.8 mphClear
6:50 AM55.4 °F44.6 °F67 %29.95 inEast (100°)5.8 mphClear
7:20 AM53.6 °F44.6 °F72 %29.95 inESE (110°)5.8 mphClear
7:50 AM55.4 °F44.6 °F67 %29.95 inESE (110°)6.9 mphClear
8:20 AM59.0 °F46.4 °F63 %29.95 inEast (100°)4.6 mphClear
8:50 AM62.6 °F48.2 °F59 %29.95 inESE (110°)4.6 mphClear
9:00 AM62.0 °F47.0 °F48 %29.97 in6.0 miESE (110°)4.6 mph
9:20 AM66.2 °F48.2 °F52 %29.98 inESE (110°)3.5 mphClear
9:50 AM69.8 °F48.2 °F46 %29.98 inCalmClear
10:20 AM71.6 °F50.0 °F46 %29.98 inWest (270°)3.5 mphClear
10:50 AM71.6 °F51.8 °F50 %29.98 inWest (270°)4.6 mphClear
11:20 AM71.6 °F55.4 °F57 %29.98 inWNW (290°)5.8 mphClear
11:50 AM73.4 °F55.4 °F53 %29.98 inWest (280°)6.9 mphClear
12:20 PM73.4 °F53.6 °F50 %29.98 inWNW (300°)6.9 mphClear
12:50 PM75.2 °F50.0 °F41 %29.98 inWNW (300°)6.9 mphClear
1:20 PM77.0 °F51.8 °F41 %29.98 inWNW (290°)5.8 mphClear
1:50 PM78.8 °F46.4 °F32 %29.98 inWNW (300°)5.8 mphClear
2:20 PM78.8 °F48.2 °F34 %29.98 inWNW (300°)6.9 mphClear
2:50 PM78.8 °F48.2 °F34 %29.95 inNW (310°)5.8 mphClear
3:00 PM80.0 °F48.0 °F22 %29.97 in6.0 miNW (310°)5.8 mph
3:20 PM78.8 °F48.2 °F34 %29.95 inWNW (300°)5.8 mphClear
3:50 PM78.8 °F55.4 °F44 %29.95 inNW (320°)5.8 mphClear
4:20 PM78.8 °F57.2 °F47 %29.95 inNNW (340°)4.6 mphClear
4:50 PM84.2 °F42.8 °F23 %29.92 inSSW (200°)11.5 mphClear
5:20 PM84.2 °F41.0 °F22 %29.92 inSouth (190°)12.7 mphClear
5:50 PM82.4 °F46.4 °F28 %29.92 inSouth (190°)11.5 mphClear
6:20 PM80.6 °F48.2 °F32 %29.92 inSouth (190°)11.5 mphClear
6:50 PM78.8 °F51.8 °F39 %29.95 inSouth (180°)12.7 mphClear
7:20 PM77.0 °F51.8 °F41 %29.95 inSouth (180°)11.5 mphClear
7:50 PM73.4 °F51.8 °F47 %29.95 inVariable3.5 mphClear
8:20 PM71.6 °F55.4 °F57 %29.95 inSE (130°)6.9 mphClear
8:50 PM69.8 °F53.6 °F56 %29.95 inESE (120°)5.8 mphClear
9:00 PM71.0 °F54.0 °F45 %29.96 in6.0 miESE (120°)5.8 mph
9:20 PM69.8 °F53.6 °F56 %29.95 inESE (110°)5.8 mphClear
9:50 PM68.0 °F53.6 °F60 %29.95 inESE (110°)3.5 mphClear
10:20 PM69.8 °F53.6 °F56 %29.98 inESE (120°)3.5 mphClear
10:50 PM66.2 °F53.6 °F64 %29.98 inVariable3.5 mphClear
11:20 PM64.4 °F51.8 °F64 %29.98 inVariable3.5 mphClear
11:50 PM64.4 °F51.8 °F64 %29.98 inSouth (180°)4.6 mphClear
Hourly data recorded from LGTS, located miles away from Thessaloniki, Greece







STORIES FROM OUR PARTNERS